BEIDOU-3 M8 (C28)

Last updated on Sat Aug 15 2026 00:03:26 GMT+0000 (Coordinated Universal Time)

1 43108U 18003B 26225.21226487 -.00000058 00000+0 00000+0 0 9999 2 43108 54.2670 300.3055 0003685 257.6238 102.4058 1.86230843 58427
UTC large
Height (km)
Speed (km/s)
/
Latitude / Longitude
Inclination (degrees)
Orbital Period (minutes)
Azimuth
Elevation
Range (km)
Doppler Factor

Next 0 passes for location: London (51.5072 / 0.1276)

No passes found over London.
BEIDOU-3 M8 (C28)